SL-23 R/B, 34112

Orbit data source: Space-Track

SL-23 R/B, 34112 is space debris in HEO originally from a launch on Thu, 26 Feb 2009 UTC launched from the Tyuratam Missile And Space Complex (TTMTR). Debris objects in space refer to the collection of defunct objects orbiting the Earth. Examples of debris include non-operational satellites, rocket bodies, and fragments generated from explosions, collisions, or faulty payload assembly.

Loading next visibility...
Identifier
34112, 2009-009B
Orbit
HEO
Last TLE update
18 hours ago
Origin
Flag of CISSpace International Services (CIS)
Manufacturer
RKKE
Mission
Spacecraft
Bus & Motor
BLOK DM2, 11D58M
Mass
2,540 kg wet, 2,540 kg dry
Launch date (UTC)
2009-02-26 (16 years ago)
Launch vehicle
Unknown
Launch site
Tyuratam Missile And Space Complex (TTMTR)
Object type
Payload
Rocket body
Debris
Shape & HBR
Cyl + 1 Nozzle, 5.9 m
Radar Cross Section
22.521 m², Large (>1 m²)

Expand to show TLE details & history

TLE from 18 hours ago
0 SL-23 R/B
1 34112U 09009B   25181.54815492 -.00000195  00000-0  00000-0 0  9990
2 34112  35.2469 357.2708 6894201  42.7239 255.5410  2.20447245131604
Epoch: 2025-06-30T13:09Z
TLE epoch observation values (Epoch: 2025-06-30T13:09:20.585Z)
Latitude
-31.19934°
Longitude
120.00041°
Altitude
30,355.083 km
Speed
2.392 km/s
True Right ascension
15h 44m 46s
True Declination
-31° 10' 11"
Sunlit
Object was in daylight at epoch
Visualization orbit readout
Latitude
-14.28243°
Longitude
81.98084°
Altitude
31,704.121 km
Speed
2.225 km/s
Apparent Right ascension
12h 42m 21s
Apparent Declination
-20° 27' 44"
Sunlit
Object is in daylight
Visualization observer readout
Local Sidereal Time
18:17:51
Azimuth
250.37° W
Elevation
-8.491°
Doppler factor
1
Orbital elements
Apogee altitude
35,756.942 km
Perigee altitude
1,367.899 km
Semi-major axis
24,940.557 km
Eccentricity
0.68942
Inclination
35.2469°
RAAN
357.2708°
Arg. of periapsis
42.7239°
True anomaly
Unknown
Mean anomaly
255.541°
Eccentric anomaly
Unknown
Mean motion
0.55104 °/min
Orbital period
653.31 mins
BSTAR
0
Loading maneuver chart data...
Loading SW <> Apogee altitude chart data...
Loading historical data...
Loading historical data...
Loading historical data...
Loading historical data...
Loading historical data...
Loading historical data...
Loading historical data...
Other satellites on launch #9 in the year 2009 (2009-02-26 UTC)

SL-23 R/B Visibility forecast

Observer location: undefined°, undefined°

Span
Click to sort rows by Start time (UTC) header in descending order
Start Az.
Max El. time (UTC)
Max El. Az.
Max El.
End time (UTC)
End Az.
11 mins2025-07-01 14:01:01.842Z196.281° SSW2025-07-01 14:06:01.842Z148.765° SSE21.238°2025-07-01 14:12:01.842Z93.914° ESE
193 mins2025-07-02 01:35:01.842Z268.329° W2025-07-02 02:18:01.842Z236.332° WSW23.095°2025-07-02 04:48:01.842Z227.034° WSW
|